KUIPER-00134

导读 | 豆包AI

KUIPER-00158是美国亚马逊公司“柯伊伯计划”低轨卫星互联网项目中的一颗卫星,于2025年9月25日发射入轨。该项目计划部署超过3000颗低轨卫星,旨在为全球尤其是偏远地区提供高速低延迟、性价比优异的互联网接入服务。作为星座组网进程中的卫星,它承担着扩展全球网络覆盖,推进太空通信与云服务一体化基础设施构建的任务,助力项目实现全球宽带覆盖的部署目标。

Basic Information
目录编号:
65776
目录名称:
KUIPER-00158
国际标识:
2025-217Q
轨道中心:
EARTH
卫星名称:
KUIPER-00158
卫星全名:
KUIPER-00134
卫星状态:
在轨 (已飞行242 天)
发射日期:
2025-09-25 UTC
国别 :
美国 (US)
星等 :
--
Orbit Information
数据来源 国际轨道数据 AOE轨道数据
星历时间 2026-05-24T09:11:30+0800
1天前
查看轨道信息
2026-05-21T23:00:00+0800
3天前
查看轨道信息
半长轴 7003.68km 7003.736km
偏心率 0.0000915 0.0000867
轨道倾角 51.896° 51.897°
近地点辐角 23.659° 26.693°
升交点赤经 71.669° 82.415°
平近点角 336.442° 356.617°
近地点 624.902km 624.991km
远地点 626.184km 626.207km
周期 97.219分钟 97.220分钟
每日圈数 14.811988 14.81181
Detailed Information
使用方式:
暂无
2D Orbit Map
3D Orbit Map
Orbit Altitude Analysis Chart
Orbit Inclination Analysis Chart
Orbit Comprehensive Analysis Chart
View Comprehensive Chart